カタログに戻る

SL-12 R/B(2)

運用中GEO
NORAD 22624·ROCKET BODY·🇷🇺 Russia

打ち上げ Mar 25, 1993 から Baikonur Cosmodrome

Loading…

TLE

最新Source: Space-Track

元期: Sep 11, 2026, 19:20 UTC

1 22624U 93013D   26254.80600356 -.00000050  00000-0  00000-0 0  9995
2 22624  14.8153 347.7045 0014128 136.0225 215.1982  0.98012924119751

AllMySatでSL-12 R/B(2)をリアルタイム追跡

Download on the App Store